SCP
0 0 0 0 0 0 -0 -0 -0 -0 -0 0 0 0 0 0 0 0 0 -0 0 0 0 0 -0 0 0 0 0 0 0 0 0 0 -0 -0 -0 -0 -0 -0 -0 -0 0
0 0 0 0 0 0 -0 -0 -0 -0 -0 -0 -0 -0 -0 -0 0 0 -0 -0 -0 0 0 0 0 0 0 0 0 0 0 0 0 0 -0 -0 0 0 -0 -0 -0 -0 0
0 0 0 0 0 0 0 -0 -0 -0 -0 -0 -0 -0 -0 -0 -0 -0 -0 -0 -0 -0 -0 -0 0 0 0 0 0 0 0 0 0 -0 -0 -0 0 0 0 0 0 0 -0
0 0 0 0 0 0 0 0 0 -0 -0 -0 -0 -0 -0 -0 -0 -0 -0 -0 -0 -0 -0 -0 0 0 0 0 0 0 0 0 0 -0 -0 0 0 0 0 0 0 0 0
0 0 0 0 0 0 0 0 0 0 0 -0 -0 -0 -0 -0 -0 -0 -0 -0 -0 -0 -0 -0 0 0 0 0 0 0 0 0 0 0 0 0 0 0 0 0 0 0 0
0 0 0 0 0 0 0 0 0 0 0 0 0 -0 -0 -0 -0 -0 -0 -0 -0 -0 -0 -0 0 0 0 0 0 0 0 0 -0 0 0 0 0 0 0 0 0 0 0
0 0 0 0 0 0 0 0 0 0 0 0 0 0 -0 -0 -0 -0 -0 -0 -0 -0 -0 -0 -0 0 0 0 0 0 0 0 0 0 0 0 0 0 0 0 0 0 -0
0 0 0 0 0 0 0 0 0 0 0 0 0 0 0 -0 -0 -0 -0 -0 -0 -0 -0 -0 -0 0 0 0 0 0 0 0 0 0 0 0 0 0 0 0 0 0 -0
0 0 0 0 0 0 0 0 0 0 0 0 0 0 0 0 0 -0 -0 -0 -0 -0 -0 -0 -0 0 0 -0 0 0 0 0 0 0 0 0 0 0 0 0 0 0 -0
0 0 0 0 0 0 0 0 0 0 0 0 0 0 0 0 0 0 0 0 0 -0 -0 -0 0 0 0 -0 -0 -0 0 0 0 0 0 0 0 0 0 0 0 0 0
0 0 0 0 0 0 0 0 0 0 0 0 0 0 0 0 0 0 0 0 0 0 0 0 0 0 0 -0 -0 -0 -0 -0 0 0 0 0 0 0 0 0 0 0 0
0 0 0 0 0 0 0 0 0 0 0 0 0 0 0 0 0 0 0 0 0 0 0 0 0 0 -0 -0 -0 -0 -0 -0 -0 0 0 0 0 0 0 0 0 0 0
0 0 0 0 0 0 0 0 0 0 0 0 0 0 0 0 0 0 0 0 0 0 0 0 0 0 0 -0 -0 -0 -0 -0 -0 0 0 0 0 0 0 0 0 0 0
0 0 0 0 0 0 0 0 0 0 0 0 0 0 0 0 0 0 0 0 0 0 0 0 0 0 0 -0 -0 -0 -0 -0 -0 0 0 0 0 0 0 0 0 0 0
0 0 0 0 0 0 0 0 0 0 0 0 0 0 0 0 0 0 0 0 0 0 0 0 0 0 0 0 -0 -0 -0 -0 -0 0 0 0 0 0 0 0 0 0 0
0 0 0 0 0 0 0 0 0 0 0 0 0 0 0 0 0 0 0 0 0 0 0 0 0 0 0 0 -0 -0 -0 -0 0 0 0 0 0 0 0 0 0 0 0
0 0 0 0 0 0 0 0 0 0 0 0 0 0 0 0 0 0 0 0 0 0 0 0 0 0 0 0 0 0 0 0 0 0 0 0 0 0 0 0 0 0 0
0 0 0 0 0 0 0 0 0 0 0 0 0 0 0 0 0 0 0 0 0 0 0 0 0 0 0 0 0 0 0 0 0 0 0 0 0 0 0 0 0 0 0
0 0 0 0 0 0 0 0 0 0 0 0 0 0 0 0 0 0 0 0 0 0 0 0 0 0 0 0 0 0 0 0 0 0 0 0 0 0 0 0 0 0 0
0 0 0 0 0 0 0 0 0 0 0 0 0 1 1 1 1 1 0 0 0 0 0 0 0 0 0 0 0 0 0 0 0 0 0 0 0 0 0 0 0 0 0
0 0 0 0 0 0 0 0 0 0 0 0 0 0 0 1 1 1 0 0 0 0 0 0 0 0 0 0 0 0 0 0 0 0 0 0 0 0 0 0 0 0 0
0 0 0 0 0 0 0 0 0 0 0 0 0 0 0 0 0 0 0 0 0 0 0 0 0 0 0 0 0 0 0 0 0 0 0 0 0 0 0 0 0 0 0
0 0 0 0 0 0 0 0 0 0 0 0 1 0 0 0 0 0 0 0 0 0 0 0 0 0 0 0 0 0 0 0 0 0 0 0 0 0 0 0 0 0 0
0 0 0 0 0 0 0 0 0 0 0 0 1 1 0 0 0 0 0 0 0 0 0 0 0 0 0 0 0 0 0 0 0 0 0 0 0 0 0 0 0 0 0
0 0 0 0 0 0 0 0 0 0 0 0 1 1 1 1 0 0 0 0 0 0 0 0 0 0 0 0 0 0 0 0 0 0 0 0 0 0 0 0 0 0 0
0 0 0 0 0 0 0 0 0 0 0 0 0 1 1 1 0 0 0 0 0 0 0 0 0 0 0 0 0 0 0 0 0 0 0 0 0 0 0 0 0 0 0
Wind_Speed
11 13 14 12 11 11 11 11 10 10 10 10 10 10 10 9 9 7 6 6 5 4 3 3 3 3 4 4 4 5 5 6 6 6 7 7 6 6 6 5 3 7 8
14 14 15 13 12 12 11 11 10 10 10 10 9 9 9 8 8 7 6 5 5 4 3 4 3 4 4 4 4 5 5 6 7 7 5 6 7 6 6 4 4 7 7
15 14 15 13 13 12 11 11 10 10 10 9 8 8 8 8 7 6 5 5 4 4 4 4 4 4 4 4 4 5 5 5 6 4 1 4 7 7 6 6 6 7 6
14 13 13 14 13 12 11 11 10 10 9 9 8 8 7 7 7 6 5 5 4 4 4 4 4 4 4 4 4 4 4 5 4 1 1 5 6 8 6 6 6 6 6
13 12 13 13 13 12 11 11 10 9 9 9 8 7 7 7 6 6 5 5 4 4 4 4 4 4 4 4 4 4 5 5 3 1 5 5 6 7 6 6 6 6 6
11 11 13 11 12 11 11 10 10 9 9 9 8 8 7 7 6 6 5 5 5 5 4 4 4 4 4 4 4 4 4 3 4 3 3 3 5 6 6 6 6 6 7
11 10 12 11 11 10 10 10 10 9 9 8 8 7 7 6 6 6 5 5 5 4 4 4 3 3 3 3 3 3 3 2 1 3 3 3 6 5 5 6 6 6 6
9 9 11 11 9 10 10 10 9 9 9 8 8 7 7 6 6 6 5 5 4 4 4 3 3 3 3 3 2 2 1 4 3 3 3 4 6 3 4 5 5 6 6
7 8 8 11 11 10 9 9 10 10 9 9 8 8 7 6 6 6 5 4 4 4 4 3 3 3 3 3 2 1 1 3 2 1 2 4 5 3 4 4 5 5 5
6 7 7 7 8 10 11 12 10 10 10 9 9 9 8 7 7 6 7 6 4 4 3 3 3 3 3 3 2 1 1 5 2 2 1 5 3 2 3 4 4 5 5
4 5 6 7 7 7 7 8 11 11 10 10 10 10 9 9 9 9 7 6 5 5 4 4 3 3 3 4 2 1 4 3 3 1 2 6 2 1 3 3 4 4 5
3 4 5 6 6 7 6 6 7 8 9 10 8 10 9 7 5 5 8 6 6 6 6 5 3 5 8 6 7 6 4 4 3 2 4 4 1 1 3 3 3 4 4
4 4 5 6 7 7 5 6 4 4 5 7 9 9 8 6 5 6 5 8 8 9 8 8 8 7 6 4 3 5 3 3 1 1 5 4 1 1 2 3 4 4 4
8 7 7 7 7 8 7 6 6 5 5 6 7 9 7 5 6 6 5 5 5 5 5 6 5 6 6 7 8 6 6 4 2 1 5 4 1 1 2 3 3 4 4
10 10 10 8 8 7 7 6 7 7 7 7 6 7 9 7 7 7 6 5 6 5 6 6 6 6 7 6 6 6 5 5 4 2 4 5 2 0 1 3 4 3 3
11 10 10 9 8 7 6 7 7 7 7 7 6 8 10 8 7 7 7 6 6 6 6 6 8 6 6 6 6 6 5 5 5 3 3 6 5 2 1 2 4 4 4
10 10 10 9 8 7 7 7 7 7 6 6 6 8 10 9 9 8 7 7 7 7 8 7 8 6 6 6 7 7 6 5 5 5 4 2 5 7 3 2 2 3 4
9 9 9 8 8 8 7 6 6 6 6 6 5 6 9 10 10 8 7 7 7 6 6 6 6 7 7 7 7 6 6 5 7 5 5 5 4 4 7 5 2 2 3
10 10 9 9 9 8 8 6 6 6 6 5 5 5 8 10 10 8 7 7 8 6 6 7 7 7 7 6 6 5 6 5 6 6 7 6 5 4 4 8 6 3 3
10 10 9 9 8 9 7 5 5 5 5 5 5 7 8 7 9 7 6 8 7 6 6 7 8 7 6 6 7 6 6 6 6 6 6 5 5 6 5 5 6 7 6
11 11 10 9 9 7 6 5 5 4 4 5 6 8 8 8 8 7 6 7 7 6 7 8 7 8 7 7 6 6 7 8 8 6 6 6 7 6 6 7 5 4 7
12 11 11 10 9 8 6 6 5 6 5 5 6 7 9 10 9 8 8 7 7 6 8 8 7 6 6 6 6 6 6 7 7 8 7 7 8 7 8 7 7 6 5
13 12 10 10 10 8 8 6 5 5 5 5 6 6 8 10 9 9 10 8 8 8 7 8 8 8 7 6 7 5 5 6 5 7 9 8 8 6 7 7 8 8 7
13 12 11 10 10 8 7 6 6 5 5 5 5 5 6 8 9 9 10 10 9 8 8 8 8 7 7 6 5 6 6 3 3 4 5 7 8 8 9 7 7 8 7
13 11 10 10 9 8 7 6 6 5 5 4 4 5 5 5 7 8 8 9 9 8 9 9 9 9 7 7 6 5 6 4 6 5 4 5 5 6 6 7 6 6 6
12 11 10 10 9 8 7 6 5 5 5 4 4 3 3 3 3 5 6 7 7 7 8 8 8 10 8 9 7 6 5 5 6 5 6 5 4 3 4 3 4 4 4
Wind_Direction
153 148 141 147 144 137 132 131 130 132 138 145 151 155 159 162 163 166 164 162 159 151 145 136 123 112 107 105 101 96 92 85 80 77 78 80 84 93 98 106 144 110 105
147 144 143 148 146 139 134 132 132 131 134 139 145 148 151 155 158 160 160 159 155 149 144 137 129 119 111 108 104 98 91 84 79 72 80 101 86 86 96 92 39 86 111
145 142 149 150 147 143 139 136 134 133 133 135 138 142 143 146 148 149 148 150 147 142 139 135 130 122 113 112 106 96 91 86 83 77 266 94 95 83 87 95 89 99 112
145 148 149 148 149 146 144 141 139 138 138 138 140 141 144 147 148 150 148 145 141 136 132 128 125 116 109 105 99 93 93 95 89 253 84 67 80 80 78 85 91 100 111
147 148 138 151 151 150 149 147 146 147 147 148 150 149 149 150 149 150 152 151 144 131 121 116 117 114 105 99 97 99 102 104 108 256 64 65 73 74 72 77 80 91 106
149 148 141 155 153 154 154 154 154 156 156 156 157 156 155 154 154 152 153 150 142 131 122 113 113 111 107 100 96 97 106 126 202 96 83 76 81 80 72 75 80 88 99
155 153 148 158 159 161 161 161 162 162 163 162 162 162 162 163 162 162 157 145 138 130 121 110 110 109 105 97 91 90 109 206 217 112 108 83 76 80 77 75 76 82 93
159 161 153 159 170 172 171 171 171 172 173 173 171 171 170 172 171 165 157 150 143 131 120 108 105 107 106 102 96 89 119 260 166 125 103 93 80 86 86 81 81 83 89
167 173 176 171 177 184 187 186 185 184 185 185 183 181 181 180 178 172 166 161 153 144 137 124 116 115 110 100 91 97 112 307 254 119 118 93 91 96 97 89 87 88 90
184 188 194 197 195 192 189 191 198 198 195 194 194 192 189 189 191 186 194 174 178 173 166 152 141 128 115 94 75 81 173 238 205 153 114 92 92 108 114 111 104 95 93
217 221 216 215 214 223 220 188 198 206 204 202 200 197 202 208 198 192 193 161 194 195 188 182 174 154 160 144 109 105 235 221 149 161 81 81 102 125 127 124 122 112 107
236 238 245 246 236 232 231 222 219 213 203 212 211 199 210 215 213 221 134 185 209 208 202 199 191 196 224 194 166 207 213 190 192 159 97 89 126 147 142 144 142 132 128
333 307 281 267 255 251 241 242 233 231 222 223 222 212 218 217 207 216 192 187 201 206 209 180 204 216 218 210 214 207 199 223 200 170 111 110 137 167 156 153 156 147 144
356 345 323 296 274 259 251 246 243 236 230 229 227 223 217 220 224 214 216 211 205 205 212 219 222 211 221 212 213 211 191 216 208 178 109 121 156 196 171 160 156 155 157
2 350 339 329 306 283 269 260 252 248 244 236 230 235 224 224 228 221 218 212 222 217 203 218 225 210 219 220 223 227 215 206 210 187 128 137 159 257 208 171 160 154 158
357 347 341 332 323 304 278 259 256 255 249 251 241 239 237 229 231 230 229 215 221 221 220 218 217 210 218 217 221 223 232 218 217 183 165 151 161 167 243 188 173 171 170
350 344 342 331 328 318 300 278 267 260 259 253 247 248 246 240 237 231 235 226 218 216 216 218 213 217 220 215 220 224 218 223 229 203 174 183 163 164 175 202 197 185 186
345 341 339 339 334 324 311 291 274 266 260 254 253 251 254 251 245 240 236 235 229 222 219 211 220 212 213 218 219 210 210 200 225 213 198 191 182 169 166 170 191 199 205
340 337 335 335 331 326 313 296 278 267 257 250 248 245 248 249 247 238 239 236 226 217 219 218 215 219 220 218 222 215 221 208 212 213 219 203 176 193 176 151 179 194 200
337 334 334 330 328 323 313 303 287 265 254 244 239 241 244 248 246 239 234 236 230 218 218 222 218 219 232 227 227 217 218 219 217 219 228 215 210 198 193 178 188 178 185
338 335 332 328 328 326 317 311 301 283 266 251 241 239 238 238 238 235 233 231 224 218 218 220 218 217 220 222 226 221 219 225 227 209 224 222 218 207 206 199 210 190 174
337 333 328 327 327 325 313 300 286 288 276 258 247 239 235 232 229 227 225 224 220 217 219 217 212 218 214 214 219 222 226 219 219 225 220 228 232 205 221 218 206 201 209
337 333 328 327 323 323 318 303 294 281 269 258 248 240 235 233 228 225 226 224 222 217 217 215 206 210 212 213 222 215 219 228 213 212 218 220 229 228 222 226 225 212 204
338 334 329 327 326 328 323 308 303 293 284 279 271 255 241 235 232 226 223 221 221 218 218 214 207 208 211 210 215 229 241 252 226 216 212 224 225 227 232 224 231 233 216
339 336 331 330 331 333 329 317 303 299 295 290 282 264 253 239 234 228 221 219 219 218 218 211 203 205 209 212 208 210 224 240 246 244 230 216 213 223 232 235 232 235 233
344 342 338 337 338 341 338 335 330 322 316 312 301 281 260 243 232 225 222 218 217 216 215 210 207 209 213 215 213 212 207 211 224 233 239 236 230 217 218 230 241 238 238